STARLINK-34285 (65101 NORAD) Tracking and Keplerian Element Data

This shows tracking and keplerian element data for the satellite.

Feedback or suggestion? Click here.




ElementValue
Catalog65101
NameSTARLINK-34285
Epoch Orbit2130
Epoch Day354.15248268
Epoch Year2025
RAAN36.0072
Inclination53.1591
Eccentricity0.0001433
Argument of Perigee94.3987
Mean Anonmoly265.7177
Mean Motion15.30210847
Decay Rate0.00022059
L11 65101U 25167Z 25354.15248268 .00022059 00000+0 75445-3 0 9994
L22 65101 53.1591 36.0072 0001433 94.3987 265.7177 15.30210847 21300



Live tracking and technical data element details for STARLINK-34285 (NORAD 65101). STARLINK-34285 can be tracked NOW for your location showing map with azimuth and elevation plus other details from your city location.







IsCatalogInMostPopularTable: catalog: 65101, numindb: 3
Update: records affected: 1



GetName: 65101 STARLINK-34285

Hit Count: updated at: Tue, 10 Feb 2026 02:04:13 GMT